| time (UTC) | temp C | wind direction | speed KPH | gust KPH | rain 1hr cm | rain 24hr cm | rain mn cm | humidity % | barometer mb |
| 20260504081804 | 18 | 135 | 4.8 | 6.4 | 0.00 | 0.00 | 0.00 | 100 | 1022.6 |
| 20260504045805 | 13 | 315 | 1.6 | 3.2 | 0.00 | 0.00 | 0.00 | 100 | 1021.8 |
| 20260504040802 | 11 | 315 | 3.2 | 6.4 | 0.00 | 0.00 | 0.00 | 100 | 1021.4 |
| 20260504035802 | 11 | 292 | 3.2 | 6.4 | 0.00 | 0.00 | 0.00 | 100 | 1021.0 |
| 20260504033804 | 11 | 315 | 4.8 | 6.4 | 0.00 | 0.00 | 0.00 | 100 | 1021.2 |
| 20260504031803 | 11 | 0 | 3.2 | 3.2 | 0.00 | 0.00 | 0.00 | 100 | 1021.0 |
| 20260504024802 | 11 | 315 | 0.0 | 0.0 | 0.00 | 0.00 | 0.00 | 100 | 1021.0 |
| 20260504020802 | 11 | 225 | 1.6 | 3.2 | 0.00 | 0.00 | 0.00 | 100 | 1021.7 |
| 20260504015804 | 11 | 90 | 1.6 | 3.2 | 0.00 | 0.00 | 0.00 | 100 | 1021.5 |
| 20260504011804 | 11 | 315 | 0.0 | 1.6 | 0.00 | 0.00 | 0.00 | 100 | 1021.7 |
| 20260504005801 | 11 | 315 | 3.2 | 3.2 | 0.00 | 0.00 | 0.00 | 100 | 1021.5 |
| 20260504003804 | 11 | 315 | 1.6 | 3.2 | 0.00 | 0.00 | 0.00 | 100 | 1021.4 |
| 20260503235802 | 11 | 141 | 3.2 | 3.2 | 0.00 | 0.00 | 0.00 | 100 | 1021.7 |
| 20260503234803 | 11 | 315 | 0.0 | 0.0 | 0.00 | 0.00 | 0.00 | 100 | 1021.8 |
| 20260503233803 | 11 | 0 | 0.0 | 1.6 | 0.00 | 0.00 | 0.00 | 100 | 1021.8 |
| 20260503225803 | 11 | 0 | 3.2 | 4.8 | 0.00 | 0.00 | 0.00 | 100 | 1021.9 |
| 20260503223802 | 12 | 0 | 4.8 | 6.4 | 0.00 | 0.00 | 0.00 | 100 | 1022.0 |
| 20260503221804 | 12 | 141 | 1.6 | 3.2 | 0.00 | 0.00 | 0.00 | 100 | 1022.2 |
| 20260503213717 | 12 | 315 | 3.2 | 3.2 | 0.00 | 0.00 | 0.00 | 100 | 1021.9 |
| 20260503212716 | 12 | 0 | 3.2 | 4.8 | 0.00 | 0.00 | 0.00 | 100 | 1021.9 |
| 20260503211714 | 12 | 315 | 1.6 | 3.2 | 0.00 | 0.00 | 0.00 | 100 | 1021.8 |
| 20260503204714 | 12 | 135 | 1.6 | 3.2 | 0.00 | 0.00 | 0.00 | 100 | 1021.7 |
| 20260503194710 | 12 | 315 | 3.2 | 3.2 | 0.00 | 0.00 | 0.00 | 100 | 1021.7 |
| 20260503191710 | 13 | 0 | 6.4 | 8.0 | 0.00 | 0.00 | 0.00 | 100 | 1021.4 |
| 20260503184708 | 13 | 225 | 4.8 | 6.4 | 0.00 | 0.00 | 0.00 | 100 | 1021.0 |
| 20260503183707 | 13 | 158 | 3.2 | 4.8 | 0.00 | 0.00 | 0.00 | 100 | 1021.1 |
| 20260503181705 | 14 | 0 | 3.2 | 4.8 | 0.00 | 0.00 | 0.00 | 100 | 1021.3 |
| 20260503180706 | 14 | 90 | 1.6 | 3.2 | 0.00 | 0.00 | 0.00 | 100 | 1021.1 |
| 20260503174704 | 14 | 315 | 6.4 | 8.0 | 0.00 | 0.00 | 0.00 | 100 | 1020.8 |
| 20260503173704 | 15 | 270 | 4.8 | 6.4 | 0.00 | 0.00 | 0.00 | 100 | 1020.8 |
| 20260503171703 | 15 | 270 | 3.2 | 6.4 | 0.00 | 0.00 | 0.00 | 100 | 1020.5 |
| 20260503170704 | 15 | 270 | 9.7 | 12.9 | 0.00 | 0.00 | 0.00 | 100 | 1020.5 |